Home   Weather   Toledo   Past weeks

Flag for USA Past Weather in Toledo, Ohio, USA — Yesterday and Last 2 Weeks

Now
43 °F

Partly sunny.


Feels Like: 38 °F
Forecast: 43 / 53 °F
Wind: 8 mph from Northeast

Location: Toledo Suburban Airport

Current Time: Apr 29, 2017 at 3:28:08 pm

Latest Report: Apr 29, 2017 at 2:54 pm


Visibility: 10 mi

Pressure: 30.18 "Hg

Humidity: 89%

Dew Point: 40 °F

Location of ToledoLocation

Past Weather in Toledo — Graph

°F

Toledo Temperature Yesterday

Maximum temperature yesterday: 61 °F (at 3:35 pm)
Minimum temperature yesterday: 42 °F (at 6:54 am)
Average temperature yesterday: 53 °F

High & Low Weather Summary for the Past Weeks

 TemperatureHumidityPressure
High84 °F (Apr 26, 5:14 pm)98% (Apr 20, 7:14 am)30.31 "Hg (Apr 20, 7:14 am)
Low32 °F (Apr 23, 7:15 am)21% (Apr 23, 5:15 pm)29.49 "Hg (Apr 27, 7:15 am)
Average57 °F69%29.96 "Hg
* Reported Apr 14 2:15 pm — Apr 29 2:15 pm, Toledo, Weather by CustomWeather, © 2017

Note: Actual official high and low records may vary slightly from our data, if they occured in-between our weather recording intervals... More about our weather records

Advertising

Toledo Weather History for the Previous 24 Hours

Scroll right to see more
 ConditionsComfort  
Time TempWeatherWind HumidityBarometerVisibility
2:15 pm
Sat, Apr 29
43 °FMore clouds than sun.9 mph90%30.20 "Hg10 mi
1:54 pm43 °FMostly cloudy.6 mph93%30.22 "Hg10 mi
1:35 pm44 °FMostly cloudy.7 mph94%30.21 "Hg7 mi
1:15 pm44 °FDrizzle. Mostly cloudy.6 mph94%30.20 "Hg7 mi
12:54 pm44 °FRain. Mostly cloudy.5 mph94%30.21 "Hg5 mi
12:34 pm43 °FRain. Low clouds.7 mph96%30.22 "Hg4 mi
11:55 am43 °FDrizzle. Cloudy.5 mph92%30.20 "Hg4 mi
11:15 am45 °FFog.6 mph87%30.17 "Hg3 mi
10:55 am45 °FMore clouds than sun.6 mph81%30.16 "Hg10 mi
10:34 am46 °FMore clouds than sun.7 mph79%30.15 "Hg10 mi
9:55 am46 °FOvercast.7 mph83%30.14 "Hg10 mi
9:34 am47 °FOvercast.7 mph84%30.13 "Hg10 mi
8:34 am51 °FFog.12 mph94%30.09 "Hg5 mi
8:15 am54 °FFog.6 mph96%30.08 "Hg4 mi
7:55 am54 °FFog.3 mph97%30.06 "Hg4 mi
7:34 am54 °FFog.No wind97%30.06 "Hg3 mi
6:55 am54 °FFog.No wind97%30.03 "Hg4 mi
6:34 am54 °FFog.3 mph97%30.03 "Hg5 mi
6:15 am54 °FFog.6 mph97%30.01 "Hg4 mi
5:55 am54 °FFog.No wind97%30.01 "Hg5 mi
5:34 am54 °FOvercast.No wind97%29.99 "Hg7 mi
5:15 am53 °FFog.No wind98%29.98 "Hg5 mi
4:55 am53 °FDrizzle. Overcast.6 mph97%29.98 "Hg2 mi
4:34 am53 °FHeavy rain. Mostly cloudy.No wind97%29.98 "Hg2 mi
4:15 am53 °FFog.No wind97%29.98 "Hg3 mi
3:35 am53 °FDrizzle. Overcast.No wind96%29.98 "Hg4 mi
3:15 am53 °FHeavy rain. Overcast.No wind96%29.98 "Hg3 mi
2:54 am54 °FDrizzle. Overcast.No wind96%29.99 "Hg3 mi
2:35 am54 °FRain. Overcast.No wind95%29.97 "Hg5 mi
2:15 am54 °FFog.No wind95%29.98 "Hg5 mi
1:54 am53 °FMostly cloudy.No wind96%29.97 "Hg7 mi
1:35 am53 °FLight rain. Overcast.No wind96%29.97 "Hg5 mi
1:15 am53 °FRain. Mostly cloudy.No wind96%29.97 "Hg5 mi
12:54 am53 °FMostly cloudy.No wind95%29.98 "Hg7 mi
12:35 am53 °FLight rain. Overcast.No wind94%29.98 "Hg5 mi
12:15 am54 °FLight rain. Overcast.No wind93%29.99 "Hg5 mi
11:54 pm
Fri, Apr 28
54 °FLight rain. Overcast.No wind88%29.97 "Hg10 mi
11:35 pm55 °FLight rain. Overcast.No wind86%29.96 "Hg10 mi
11:15 pm55 °FOvercast.No wind84%29.96 "Hg10 mi
10:54 pm55 °FLight rain. Overcast.No wind80%29.97 "Hg10 mi
10:35 pm56 °FMostly cloudy.3 mph80%29.98 "Hg10 mi
10:15 pm56 °FOvercast.No wind81%29.98 "Hg10 mi
9:54 pm56 °FOvercast.No wind82%29.96 "Hg10 mi
9:35 pm55 °FPassing clouds.No wind83%29.95 "Hg10 mi
9:15 pm55 °FPassing clouds.3 mph83%29.94 "Hg10 mi
8:54 pm55 °FPassing clouds.6 mph84%29.93 "Hg10 mi
8:15 pm55 °FOvercast.6 mph84%29.96 "Hg10 mi
7:54 pm54 °FOvercast.6 mph86%29.95 "Hg10 mi
7:35 pm54 °FOvercast.7 mph86%29.94 "Hg10 mi
7:15 pm55 °FLight rain. Overcast.7 mph87%29.95 "Hg10 mi
6:54 pm55 °FLight rain. More clouds than sun.8 mph87%29.95 "Hg10 mi
6:35 pm55 °FLight rain. Mostly cloudy.No wind88%29.94 "Hg10 mi
6:15 pm56 °FLight rain. Overcast.3 mph82%29.96 "Hg10 mi
5:54 pm57 °FLight rain. More clouds than sun.5 mph76%29.96 "Hg10 mi
5:34 pm58 °FLight rain. Overcast.6 mph70%29.97 "Hg10 mi
5:15 pm59 °FLight rain. Mostly cloudy.12 mph64%29.98 "Hg10 mi
4:54 pm59 °FOvercast.10 mph59%29.99 "Hg10 mi
4:35 pm60 °FOvercast.8 mph57%30.00 "Hg10 mi
4:15 pm60 °FMostly cloudy.7 mph56%29.97 "Hg10 mi
3:54 pm61 °FMostly cloudy.7 mph53%29.99 "Hg10 mi
3:35 pm61 °FPartly sunny.9 mph52%30.00 "Hg10 mi
3:15 pm60 °FOvercast.7 mph52%30.00 "Hg10 mi
Weather by CustomWeather, © 2017

See weather overviewHow to use our weather pages